Humidity-temperature Sensor

Selected Measurement Type: Air Temperature

 
Air Temperature [°C]     6 entries per hour
Showing data from 4/23/2015 (00:00:00 Z) to 4/20/2015 (00:01:00 Z)
Previous Next [ Day | 3-Days | 7-Days ]
First Last
Prev [ Day | 3-Days | 7-Days ] Next
First Last

Start Time:     :
End Time:     :     
Time (in GMT) :00 :50 :40 :30 :20 :10
Previous Next [ Day | 3-Days | 7-Days ]
First Last
Prev [ Day | 3-Days | 7-Days ] Next
First Last


123 => good data
MM => data is determined as missing
-- => data not received/configured
Back to Top Back to Top
4/23/2015 00:00 to 23:10 27.95 27.72 27.73 27.19 27.13 27.88
4/22/2015 23:00 to 22:10 28.28 27.97 27.83 27.64 27.48 27.56
4/22/2015 22:00 to 21:10 28.25 27.80 27.56 27.98 27.85 27.80
4/22/2015 21:00 to 20:10 27.93 28.21 28.29 28.27 28.21 28.22
4/22/2015 20:00 to 19:10 28.23 28.02 28.11 28.30 28.14 28.20
4/22/2015 19:00 to 18:10 28.08 28.22 28.13 28.01 28.18 28.08
4/22/2015 18:00 to 17:10 27.92 27.64 27.30 26.74 26.52 26.91
4/22/2015 17:00 to 16:10 26.58 27.74 27.95 27.81 27.96 28.19
4/22/2015 16:00 to 15:10 28.25 28.25 28.14 28.22 28.10 28.12
4/22/2015 15:00 to 14:10 27.77 28.00 27.85 27.82 27.76 27.78
4/22/2015 14:00 to 13:10 27.66 27.71 27.78 27.75 27.56 27.65
4/22/2015 13:00 to 12:10 27.56 27.38 27.30 27.18 27.10 27.24
4/22/2015 12:00 to 11:10 26.94 26.81 26.85 26.77 26.75 26.68
4/22/2015 11:00 to 10:10 26.67 26.61 26.71 26.89 26.89 27.01
4/22/2015 10:00 to 9:10 26.94 26.59 26.81 27.22 27.43 27.46
4/22/2015 09:00 to 8:10 27.52 27.55 27.48 27.55 27.46 27.52
4/22/2015 08:00 to 7:10 27.65 27.41 27.56 27.51 27.60 27.44
4/22/2015 07:00 to 6:10 27.61 27.52 27.56 27.55 27.43 27.54
4/22/2015 06:00 to 5:10 27.49 27.58 27.58 27.56 27.53 27.48
4/22/2015 05:00 to 4:10 27.51 27.37 27.36 27.33 27.12 27.44
4/22/2015 04:00 to 3:10 27.37 27.46 27.32 27.30 27.41 27.27
4/22/2015 03:00 to 2:10 27.38 27.73 27.94 28.00 27.85 27.87
4/22/2015 02:00 to 1:10 27.87 27.86 27.96 27.87 27.84 28.10
4/22/2015 01:00 to 0:10 27.79 27.91 27.91 28.04 28.20 28.18
4/22/2015 00:00 to 23:10 28.26 28.31 28.10 28.13 28.08 28.18
4/21/2015 23:00 to 22:10 28.21 28.07 28.27 28.09 28.07 27.93
4/21/2015 22:00 to 21:10 28.03 28.01 28.00 27.96 27.98 27.92
4/21/2015 21:00 to 20:10 27.92 27.96 28.01 27.91 27.94 28.06
4/21/2015 20:00 to 19:10 27.90 27.84 27.94 27.81 27.92 27.87
4/21/2015 19:00 to 18:10 27.94 27.84 27.80 27.84 27.82 27.86
4/21/2015 18:00 to 17:10 27.93 27.90 28.08 27.92 28.07 27.97
4/21/2015 17:00 to 16:10 28.03 27.78 27.96 27.80 27.81 27.89
4/21/2015 16:00 to 15:10 28.03 27.87 27.80 27.93 27.85 27.82
4/21/2015 15:00 to 14:10 27.82 27.80 27.82 27.88 27.80 27.56
4/21/2015 14:00 to 13:10 27.62 27.62 27.43 27.56 27.49 27.50
4/21/2015 13:00 to 12:10 27.32 27.51 27.40 27.39 27.53 27.35
4/21/2015 12:00 to 11:10 27.52 27.34 27.40 27.43 27.43 27.55
4/21/2015 11:00 to 10:10 27.46 27.42 27.38 27.47 27.33 27.35
4/21/2015 10:00 to 9:10 27.56 27.29 27.42 27.37 27.51 27.49
4/21/2015 09:00 to 8:10 27.46 27.42 27.39 27.52 27.37 27.44
4/21/2015 08:00 to 7:10 27.44 27.56 27.41 27.51 27.44 27.55
4/21/2015 07:00 to 6:10 27.55 27.59 27.48 27.56 27.48 27.60
4/21/2015 06:00 to 5:10 27.58 27.62 27.58 27.62 27.46 27.62
4/21/2015 05:00 to 4:10 27.54 27.65 27.55 27.63 27.53 27.68
4/21/2015 04:00 to 3:10 27.73 27.63 27.58 27.64 27.65 27.66
4/21/2015 03:00 to 2:10 27.63 27.68 27.73 27.69 27.79 27.71
4/21/2015 02:00 to 1:10 27.75 27.65 27.63 27.62 27.79 27.73
4/21/2015 01:00 to 0:10 27.72 27.90 28.14 28.01 28.08 28.15
4/21/2015 00:00 to 23:10 27.85 28.00 27.98 28.11 28.09 28.08
4/20/2015 23:00 to 22:10 28.21 28.09 28.00 27.94 28.01 27.80
4/20/2015 22:00 to 21:10 27.91 28.22 27.89 27.90 27.68 27.72
4/20/2015 21:00 to 20:10 27.82 27.87 27.84 27.78 27.94 27.85
4/20/2015 20:00 to 19:10 27.84 27.90 27.81 27.78 27.79 27.92
4/20/2015 19:00 to 18:10 27.81 27.83 27.79 27.88 27.97 27.85
4/20/2015 18:00 to 17:10 27.90 27.83 27.90 27.90 27.74 28.00
4/20/2015 17:00 to 16:10 27.88 27.86 27.88 27.91 28.02 27.94
4/20/2015 16:00 to 15:10 27.96 27.81 27.97 27.86 27.91 27.78
4/20/2015 15:00 to 14:10 27.92 -- -- -- -- --
4/20/2015 14:00 to 13:10 -- -- -- -- -- --
4/20/2015 13:00 to 12:10 -- -- -- -- -- --
4/20/2015 12:00 to 11:10 -- -- -- -- -- --
4/20/2015 11:00 to 10:10 -- -- -- -- -- --
4/20/2015 10:00 to 9:10 -- -- -- -- -- --
4/20/2015 09:00 to 8:10 -- -- -- -- -- --
4/20/2015 08:00 to 7:10 -- -- -- -- -- --
4/20/2015 07:00 to 6:10 -- -- -- -- -- --
4/20/2015 06:00 to 5:10 -- -- -- -- -- --
4/20/2015 05:00 to 4:10 -- -- -- -- -- --
4/20/2015 04:00 to 3:10 -- -- -- -- -- --
4/20/2015 03:00 to 2:10 -- -- -- -- -- --
4/20/2015 02:00 to 1:10 -- -- -- -- -- --
4/20/2015 01:00 to 0:10 -- -- -- -- -- --